Fort Indiantown Gap, PA

1:16 PM EST on November 12, 2019 (GMT -0500)
Muir Army Air Field

Weather History for KMUI - August, 2019

Change the Weather History Date:

Sunday, August 18, 2019

  Actual Average Record
Temperature  
Mean Temperature 80 °F -  
Max Temperature 94 °F 81 °F 94 °F (2019)
Min Temperature 68 °F 65 °F 53 °F (2014)
Cooling Degree Days 16    
Growing Degree Days 30 (Base 50)    
Moisture  
Dew Point 69 °F    
Average Humidity 81    
Maximum Humidity 100    
Minimum Humidity 43    
Precipitation  
Precipitation 0.26 in - - ()
Sea Level Pressure  
Sea Level Pressure 30.00 in    
Wind  
Wind Speed 3 mph (ENE)    
Max Wind Speed 20 mph    
Max Gust Speed 30 mph    
Visibility 9 miles    
Events Rain , Thunderstorm    
Averages and records for this station are not official NWS values.
T = Trace of Precipitation, MM = Missing Value Source: NWS Daily Summary

Daily Weather History Graph

Daily Weather History Graph

Search for Another Location

Airport or City:

Astronomy

Aug. 18, 2019 Rise Set
Actual Time 6:19 AM EDT 7:59 PM EDT
Civil Twilight 5:50 AM EDT 8:28 PM EDT
Nautical Twilight 5:15 AM EDT 9:03 PM EDT
Astronomical Twilight 4:38 AM EDT 9:40 PM EDT
Moon 9:53 PM EDT (8/18) 9:03 AM EDT (8/18)
Length of Visible Light 14h 37m
Length of Day
13h 40m
Waning Gibbous, 91% of the Moon is Illuminated
Aug 18
Waning Gibbous
Aug 23
Last Quarter
Aug 30
New
Sep 5
First Quarter
Sep 14
Full

Hourly Weather History & Observations

Time (EDT) Temp. Heat Index Dew Point Humidity Pressure Visibility Wind Dir Wind Speed Gust Speed Precip Events Conditions
12:56 AM 70.9 °F - 70.0 °F 97% 29.96 in 10.0 mi Calm Calm - N/A   Clear
1:56 AM 69.6 °F - 68.7 °F 97% 29.98 in 10.0 mi Calm Calm - N/A   Clear
2:32 AM 69.8 °F - 68.0 °F 94% 29.99 in 6.0 mi Calm Calm - N/A Rain Light Rain
2:38 AM 69.8 °F - 69.8 °F 100% 29.99 in 7.0 mi Calm Calm - N/A   Clear
2:56 AM 69.4 °F - 68.5 °F 97% 29.99 in 9.0 mi Calm Calm - 0.00 in   Clear
3:56 AM 69.6 °F - 68.9 °F 98% 29.99 in 9.0 mi Calm Calm - N/A   Clear
4:56 AM 69.4 °F - 69.1 °F 99% 29.99 in 10.0 mi Calm Calm - N/A   Partly Cloudy
5:01 AM 69.8 °F - 68.0 °F 94% 29.99 in 9.0 mi North 4.6 mph - N/A Rain Light Rain
5:06 AM 68.0 °F - 68.0 °F 100% 29.99 in 7.0 mi North 3.5 mph - N/A   Clear
5:56 AM 69.1 °F - 68.7 °F 99% 30.00 in 10.0 mi Calm Calm - 0.00 in   Scattered Clouds
6:56 AM 68.9 °F - 68.4 °F 98% 30.02 in 10.0 mi Calm Calm - N/A   Mostly Cloudy
7:56 AM 71.4 °F - 70.5 °F 97% 30.03 in 9.0 mi Calm Calm - N/A   Scattered Clouds
8:56 AM 75.7 °F - 70.2 °F 83% 30.03 in 10.0 mi ENE 5.8 mph - N/A   Clear
9:56 AM 80.4 °F 83.9 °F 70.5 °F 72% 30.03 in 10.0 mi NNE 4.6 mph - N/A   Clear
10:56 AM 83.7 °F 88.6 °F 71.1 °F 66% 30.02 in 10.0 mi SSE 4.6 mph - N/A   Clear
11:56 AM 86.9 °F 93.3 °F 71.8 °F 61% 30.02 in 10.0 mi ENE 4.6 mph - N/A   Partly Cloudy
12:56 PM 89.2 °F 94.5 °F 70.3 °F 53% 30.00 in 10.0 mi Calm Calm - N/A   Clear
2:56 PM 90.9 °F 97.8 °F 71.8 °F 53% 29.98 in 10.0 mi SE 4.6 mph - N/A   Clear
3:56 PM 93.0 °F 96.9 °F 67.8 °F 43% 29.98 in 10.0 mi South 9.2 mph - N/A   Mostly Cloudy
4:56 PM 93.7 °F 98.8 °F 69.1 °F 44% 29.96 in 10.0 mi Calm Calm - N/A   Mostly Cloudy
5:56 PM 88.2 °F 95.0 °F 72.0 °F 59% 29.95 in 10.0 mi South 11.5 mph 18.4 mph N/A Thunderstorm Mostly Cloudy
6:08 PM 87.8 °F 95.6 °F 73.4 °F 62% 29.95 in 10.0 mi South 8.1 mph 18.4 mph N/A Rain Light Rain
6:23 PM 82.4 °F 89.5 °F 75.2 °F 79% 29.96 in 10.0 mi SSE 3.5 mph - N/A   Overcast
6:56 PM 82.6 °F 86.1 °F 69.1 °F 64% 29.97 in 10.0 mi East 5.8 mph - 0.01 in   Mostly Cloudy
7:24 PM 78.8 °F - 66.2 °F 65% 30.00 in 10.0 mi NNW 17.3 mph 27.6 mph N/A Rain , Thunderstorm Rain
7:28 PM 78.8 °F - 68.0 °F 69% 30.00 in 8.0 mi North 19.6 mph 29.9 mph N/A Rain , Thunderstorm Heavy Rain
7:38 PM 73.4 °F - 69.8 °F 88% 30.00 in 1.9 mi NE 6.9 mph 20.7 mph N/A Rain , Thunderstorm Heavy Rain
7:46 PM 71.6 °F - 68.0 °F 88% 30.00 in 7.0 mi East 8.1 mph - N/A Rain , Thunderstorm Light Rain
7:56 PM 71.1 °F - 68.2 °F 91% 30.01 in 10.0 mi East 8.1 mph - 0.25 in Rain , Thunderstorm Light Rain
8:04 PM 71.6 °F - 68.0 °F 88% 30.02 in 10.0 mi NNE 3.5 mph - N/A Thunderstorm Overcast
8:56 PM 69.8 °F - 67.3 °F 92% 30.02 in 10.0 mi NNE 3.5 mph - 0.00 in   Scattered Clouds
9:56 PM 69.4 °F - 66.9 °F 92% 30.02 in 10.0 mi WSW 11.5 mph - N/A   Mostly Cloudy
10:02 PM 69.8 °F - 68.0 °F 94% 30.02 in 10.0 mi West 5.8 mph - N/A Thunderstorm Light Drizzle
10:24 PM 71.6 °F - 66.2 °F 83% 30.02 in 10.0 mi Calm Calm - N/A Thunderstorm Mostly Cloudy
11:56 PM 69.4 °F - 67.3 °F 93% 29.99 in 10.0 mi Calm Calm - N/A   Partly Cloudy